Location: Boda
(47.1872°N, 9.5454°E)
Time: 09:24:19
(UTC+00:00)

Cosmos 2322 Rocket - Pass Details

Date: 14 May 2021
Orbit: 831 x 852 km, 71.0° (Epoch: 16 June)

Event Time Altitude Azimuth Distance (km) Brightness Sun altitude
Rises 02:47:51 0° 183° (S) 3,383 4.9 -9.1°
Reaches altitude 10° 02:50:22 10° 177° (S) 2,456 4.3 -8.8°
Maximum altitude 02:55:39 42° 108° (ESE) 1,188 3.3 -8.1°
Drops below altitude 10° 03:00:59 10° 39° (NE) 2,484 6.2 -7.4°
Sets 03:03:33 0° 33° (NNE) 3,426 6.9 -7.0°
